Regional Weather Roundup
Issued by NWS Boston, MA

Home | Current Version | Previous Version | Text Only | Print | Product List | Glossary On
Versions: 1 2 3 4 5 6 7 8 9 10 11 12 13 14 15 16 17 18 19 20 21 22 23 24 25 26 27 28 29 30 31 32 33 34 35 36 37 38 39 40 41 42 43 44 45 46 47 48 49 50
000
ASUS41 KBOX 230710
RWRBOX

REGIONAL WEATHER ROUNDUP
NATIONAL WEATHER SERVICE TAUNTON MA
300 AM EDT TUE SEP 23 2014

NOTE:  "FAIR" INDICATES FEW OR NO CLOUDS BELOW 12,000 FEET WITH NO
SIGNIFICANT WEATHER AND/OR OBSTRUCTIONS TO VISIBILITY.  THE FOLLOWING
OBSERVATION LOCATIONS DO NOT REPORT PRESENT WEATHER...PROVINCETOWN...
SMITHFIELD...BLOCK ISLAND...KEENE...AND OXFORD.

MAZALL-230800-
EASTERN MASSACHUSETTS

CITY           SKY/WX    TMP DP  RH WIND       PRES   REMARKS
BOSTON         CLEAR     52  38  58 W6        30.14R
BEVERLY        CLEAR     44  37  76 W3        30.12S
LAWRENCE       CLEAR     46  39  76 S5        30.14S
BEDFORD        CLEAR     40  38  93 CALM      30.13R
BLUE HILL        N/A     45  38  76 W12       30.12S
NORWOOD        CLEAR     38  36  92 CALM      30.14S FOG
MARSHFIELD     NOT AVBL
PLYMOUTH       CLEAR     45  37  73 W5        30.14R
TAUNTON        CLEAR     39  37  92 CALM      30.14R
NEW BEDFORD    CLEAR     45  41  86 CALM      30.14R
$$

MAZALL-230800-
CAPE COD AND THE ISLANDS

CITY           SKY/WX    TMP DP  RH WIND       PRES   REMARKS
FALMOUTH       CLEAR     46  39  76 NW7       30.13S
HYANNIS        CLEAR     52  40  63 NW5       30.11S
CHATHAM        CLEAR     54  38  54 VRB7      30.12S
PROVINCETOWN   CLEAR     55  39  54 NW16G22   30.13R
NANTUCKET      CLEAR     56  40  55 N16       30.12R
MARTHAS VNYRD  CLEAR     50  39  66 N6        30.13S
$$

MAZALL-230800-
CENTRAL AND WESTERN MASSACHUSETTS

CITY           SKY/WX    TMP DP  RH WIND       PRES   REMARKS
WORCESTER      CLEAR     45  37  73 NW5       30.14R
FITCHBURG      CLEAR     43  39  86 CALM      30.15R
ORANGE         CLEAR     39  37  92 S3        30.14R
SPRINGFIELD    CLEAR     38  36  94 S1        30.15R
WESTFIELD      CLEAR     41  38  89 CALM      30.15S
NORTH ADAMS    CLEAR     40  39  97 CALM      30.19S
PITTSFIELD     PTCLDY    45  39  79 CALM      30.17S
$$

RIZALL-230800-
RHODE ISLAND

CITY           SKY/WX    TMP DP  RH WIND       PRES   REMARKS
PROVIDENCE     CLEAR     46  40  79 W6        30.16R
NEWPORT        CLEAR     52  41  66 NW8       30.15R
BLOCK ISLAND   PTCLDY    54  37  54 N8        30.16R
WESTERLY       CLEAR     46  41  82 CALM      30.18R
$$

CTZALL-230800-
CONNECTICUT

CITY           SKY/WX    TMP DP  RH WIND       PRES   REMARKS
BRADLEY INTL   CLEAR     50  40  68 SW3       30.16R
HARTFORD       CLEAR     50  40  68 SW10      30.17R
BRIDGEPORT     CLEAR     50  42  74 W3        30.19R
DANBURY        CLEAR     42  39  89 CALM      30.20R
GROTON         CLEAR     49  40  71 CALM      30.17R
NEW HAVEN      CLEAR     54  42  64 NW6       30.19R
CHESTER        FAIR      45  39  81 W3        30.18R
MERIDEN        CLEAR     41  39  93 CALM      30.18R
WILLIMANTIC    CLEAR     43  40  89 CALM      30.17R
OXFORD         CLEAR     43  36  75 CALM      30.19R
$$

MEZ002-015-021-024-NHZ003-005-008-011-012-014-VTZ005-008-230800-
NORTHERN NEW ENGLAND

CITY           SKY/WX    TMP DP  RH WIND       PRES   REMARKS
PORTLAND ME    CLEAR     44  36  73 NE3       30.09S
BANGOR ME      CLEAR     44  37  76 W5        30.03R
CONCORD NH     CLEAR     43  37  79 CALM      30.11S
MANCHESTER NH  CLEAR     46  37  71 CALM      30.11R
NASHUA NH      CLEAR     42  40  93 CALM      30.14R
PORTSMOUTH NH  CLEAR     47  39  75 SW5       30.10R
JAFFREY NH     CLEAR     44  36  73 VRB3      30.12S
KEENE NH       CLEAR     37  30  75 CALM      30.16R
BURLINGTON VT  CLOUDY    52  38  58 W8        30.15R
MT. WASHINGTON FOG       23  23 100 NW64        N/A  VSB 1/16WCI   0
$$

NYZ052-076-230800-
EASTERN NEW YORK

CITY           SKY/WX    TMP DP  RH WIND       PRES   REMARKS
ALBANY         PTCLDY    46  41  82 NE3       30.20S
NEW YORK CITY  CLEAR     55  40  56 NW15      30.19S
$$

ANZALL-230800-
MARINE OBSERVATIONS

STATION/POSITION TIME  TEMP    WIND        PRES    VSBY  WAVE
                       AIR SEA DIR/SP/G                  HT/PER
                 (UTC) (F)     (DEG/KT/KT) (MB)    (MI)  (FT/S)
BOSTON BUOY      0650   54 60  310/ 16/ 17 1020.1R         2/11
BUZZARDS BAY     0600          320/ 14/ 16 1021.3R
NANTUCKET SOUND  0650   57 67  330/ 17/ 21 1019.5S         3/ 4
MASS BAY-STELLWA 0604   55 61  300/ 12/ 16   N/A    1 7/8  4/11
ISLE OF SHOALS   0700   51     270/ 14/ 16 1019.1R
S OF BLOCK IS    0608      67                N/A           7/10
$$

......................KEY.........................
  SKY/WX - SKY CONDITION/PRESENT WEATHER
  TMP    - TEMPERATURE IN FAHRENHEIT
  DWPT   - DEWPOINT IN FAHRENHEIT
  RH     - RELATIVE HUMIDITY IN PERCENT
  WIND   - DIRECTION AND SPEED IN MPH
  PRES   - MEAN SEA LEVEL PRESSURE IN INCHES OF HG
  WCI    - WIND CHILL INDEX
  VSB    - VISIBILITY IN MILES
  HX     - HEAT INDEX
  TC     - TEMPERATURE IN CELSIUS
  VRB    - VARIABLE WIND DIRECTION
  N/A    - NOT AVAILABLE


USA.gov is the U.S. government's official web portal to all federal, state and local government web resources and services.